Regional Weather Roundup
Issued by NWS

Home | Current Version | Previous Version | Graphics & Text | Print | Product List | Glossary On
Versions: 1 2 3 4 5 6 7 8 9 10 11 12 13 14 15 16 17 18 19 20 21 22 23 24 25 26 27 28 29 30 31 32 33 34 35 36 37 38 39 40 41 42 43 44 45 46 47 48 49 50
307
ASUS43 KLSX 232207
RWRMO

WEATHER SUMMARY FOR MISSOURI
NATIONAL WEATHER SERVICE SPRINGFIELD MO
500 PM CDT SAT SEP 23 2017

NOTE: "FAIR" INDICATES FEW OR NO CLOUDS BELOW 12,000 FEET WITH NO
       SIGNIFICANT WEATHER AND/OR OBSTRUCTIONS TO VISIBILITY.
       CURRENT SKY AND/OR WEATHER CONDITIONS ARE NOT AVAILABLE FOR
       CHILLICOTHE AND FARMINGTON.

MOZ001>031-035>038-043-044-053-054-232300-
...NORTHERN AND WESTERN MISSOURI...

CITY           SKY/WX    TMP DP  RH WIND       PRES   REMARKS
KANSAS CTY INT MOSUNNY   87  68  52 S12       29.95F HX  90
KANSAS C DTWN  SUNNY     91  68  46 SE9       29.93F HX  95
LEE`S SUMMIT   SUNNY     88  68  51 S12       29.96F HX  91
ST JOSEPH      MOSUNNY   91  68  46 S16G23    29.92F HX  95
CHILLICOTHE      N/A     88  68  51 S5        29.96F HX  91
KIRKSVILLE     MOSUNNY   88  62  41 SE6       29.99S

$$
MOZ066>068-077>081-088>096-101>105-232300-
...SOUTHWEST MISSOURI...

CITY           SKY/WX    TMP DP  RH WIND       PRES   REMARKS
SPRINGFIELD    MOSUNNY   88  63  43 SE6       29.97F
JOPLIN         SUNNY     89  64  43 S6        29.96F HX  90
BRANSON        MOSUNNY   90  61  37 SE9       29.99F

$$
MOZ032>034-039>042-045>050-055>058-069>072-232300-
...CENTRAL MISSOURI...

CITY           SKY/WX    TMP DP  RH WIND       PRES   REMARKS
COLUMBIA       SUNNY     89  65  44 SE5       29.98F HX  91
JEFFERSON CITY MOSUNNY   91  64  40 E6        29.96F HX  92
ROLLA          SUNNY     91  61  36 E8        30.00S HX  91
SEDALIA        SUNNY     91  68  46 SE7       29.98F HX  95
WHITEMAN AFB   MOSUNNY   89  67  48 S7        29.95F HX  92
WARRENSBURG    SUNNY     88  64  45 SE9       29.96F
OSAGE BEACH    PTSUNNY   89  67  47 E6        29.98F HX  92

$$
MOZ051-052-059>065-232300-
...EAST CENTRAL MISSOURI...

CITY           SKY/WX    TMP DP  RH WIND       PRES   REMARKS
ST LOUIS INTL  MOSUNNY   91  61  36 E10       29.99F HX  91
SPIRIT OF STL  SUNNY     91  65  41 NE8       29.97F HX  93
ST CHARLES     SUNNY     92  59  33 SE10      29.98F HX  91

$$
MOZ072>076-082>087-097>100-106>115-232300-
...SOUTH CENTRAL AND SOUTHEAST MISSOURI...

CITY           SKY/WX    TMP DP  RH WIND       PRES   REMARKS
CAPE GIRARDEAU SUNNY     91  64  40 VRB6      29.97S HX  92
FARMINGTON     SUNNY     89  65  44 E9        30.01S HX  91
POPLAR BLUFF   MOSUNNY   90  64  42 E3        29.96S HX  91
WEST PLAINS    SUNNY     89  62  40 E9        30.01S

$$



USA.gov is the U.S. government's official web portal to all federal, state and local government web resources and services.